AirNav   Air Wisconsin Up To $57,000 Bonus
 
 705 users online  

5HO Hope Airport
Hope, Alaska, USA

GOING TO HOPE?


FAA INFORMATION EFFECTIVE 02 DECEMBER 2021

Location

FAA Identifier: 5HO
Lat/Long: 60-54-26.1100N 149-37-22.1200W
60-54.435167N 149-37.368667W
60.9072528,-149.6228111
(estimated)
Elevation: 193.9 ft. / 59 m (estimated)
Variation: 25E (1985)
From city: 1 mile SE of HOPE, AK
Time zone: UTC -9 (UTC -8 during Daylight Saving Time)
Zip code: 99605

Airport Operations

Airport use: Open to the public
Activation date: 11/1950
Control tower: no
ARTCC: ANCHORAGE CENTER
FSS: KENAI FLIGHT SERVICE STATION [907-283-7211]
NOTAMs facility: ENA (NOTAM-D service available)
Attendance: UNATNDD
Wind indicator: yes, WINDSOCKS LOCATED AT BOTH ENDS OF RWY 17/35.
Segmented circle: yes

Airport Communications

CTAF: 122.9
WX ASOS at ANC (19 nm NW): PHONE 907-271-5278
WX ASOS at MRI (19 nm N): 124.25 (907-271-5277)
WX ASOS at LHD (19 nm NW): PHONE 907-245-5432

Nearby radio navigation aids

VOR radial/distance  VOR name  Freq  Var
TEDr130/18.5ANCHORAGE VOR/DME113.1518E

Airport Services

Airframe service: NONE
Powerplant service: NONE
Bottled oxygen: NONE
Bulk oxygen: NONE

Runway Information

Runway 17/35

Dimensions: 2040 x 60 ft. / 622 x 18 m
Surface: gravel, in fair condition
Runway edge markings: NSTD MKGS RYS 17 & 35; RWY THLDS MKD WITH PLASTIC MARKERS.
RUNWAY 17  RUNWAY 35
Latitude: 60-54.601333N60-54.269000N
Longitude: 149-37.327333W149-37.410000W
Elevation: 159.3 ft.193.9 ft.
Traffic pattern: leftleft
Markings: NSTDNSTD
Obstructions: 57 ft. trees, 110 ft. left and right of centerline53 ft. trees, 110 ft. left and right of centerline

Airport Ownership and Management from official FAA records

Ownership: Publicly-owned
Owner: ALASKA DOT&PF CENTRAL REGION
P.O. BOX 196900
ANCHORAGE, AK 99519-6900
Phone 907-338-1466
Manager: JOHN FREEMAN/ROB SMITH
STATE OF AK - DOTPF, 35200 HOPE HWY
HOPE, AK 99605
Phone 907-288-2428
ALT PH: 907-262-1187.

Airport Operational Statistics

Aircraft based on the field: 11
Single engine airplanes: 11
    
Aircraft operations: avg 40/month *
58% local general aviation
31% transient general aviation
10% air taxi
* for 12-month period ending 31 December 2019

Additional Remarks

BE ALERT RWY CONDITION NOT MONITORED. RECOMMEND VISUAL INSPECTION PRIOR TO LANDING.
SAFETY AREA NORTH END CLEARED 470 FT, SAFETY AREA SOUTH END CLEARED 580 FT.

Instrument Procedures

There are no published instrument procedures at 5HO.

Some nearby airports with instrument procedures:

PANC - Ted Stevens Anchorage International Airport (19 nm NW)
PAMR - Merrill Field Airport (19 nm N)
PAED - Elmendorf Air Force Base (21 nm N)
PAFR - Bryant Army Airfield Heliport (22 nm N)
PAGQ - Big Lake Airport (38 nm N)
 
Loc | Ops | Rwys | IFR | FBO | Links
Com | Nav | Svcs | Stats | Notes

Crowley
 
Area around 5HO (Hope Airport)
 
Road maps at: MapQuest Bing Google
 
Aerial photo
WARNING: Photo may not be current or correct
Aerial photo of 5HO (Hope Airport)
Photo by Jonathan Tack
Photo taken 07-Aug-2006

Do you have a better or more recent aerial photo of Hope Airport that you would like to share? If so, please send us your photo.

 
Sectional chart

 
Airport distance calculator
Flying to Hope Airport? Find the distance to fly.

From to 5HO

Sunrise and sunset
Times for 05-Dec-2021
 Local
(UTC-9)
 Zulu
(UTC)
Morning civil twilight08:5317:53
Sunrise09:5118:51
Sunset15:4800:48
Evening civil twilight16:4601:46

Current date and time
Zulu (UTC)  05-Dec-2021 13:44:56
Local (UTC-9)  05-Dec-2021 04:44:56
 
METAR
PANC 
19nm NW 
051253Z 02003KT 10SM FEW065 OVC090 M13/M16 A3030 RMK AO2 SLP265 T11281161 $
PALH 
19nm NW 
051253Z 03006KT 10SM FEW075 OVC085 M13/M14 A3032 RMK AO2 SLP269 T11281144
PAMR 
20nm N 
051253Z 02004KT 10SM FEW003 BKN050 OVC090 M13/M15 A3031 RMK AO2 SNE38 SLP269 P0000 T11281150 $
PAED 
21nm N 
051256Z 07003KT 10SM FEW005 OVC080 M13/M15 A3029 RMK AO2A SLP257 T11321149 $
PAFR 
22nm N 
051258Z AUTO 00000KT 10SM OVC055 M14/M16 A3025 RMK AO2 SLP261 T11411156 PNO $
PATO 
24nm E 
051326Z AUTO 14008G17KT 120V180 2SM -SN BR OVC033 M03/M04 A3034 RMK AO2 P0000 T10331044 TSNO $
PABV 
31nm N 
051256Z AUTO 00000KT 10SM BKN060 OVC090 M13/M15 A3033 RMK AO2 SLP279 T11331150 FZRANO
TAF
PANC 
19nm NW 
042108Z 0421/0524 02004KT 3SM BR BKN006 TEMPO 0421/0423 P6SM NSW SCT006 FM042300 02006KT P6SM VCFG SCT006 FM051400 16006KT 3SM -SN BR SCT030 OVC050
PAED 
21nm N 
050041Z 0500/0601 VRB06KT 4800 BR VCFG FEW004 BKN005 QNH3035INS BECMG 0505/0506 VRB06KT 9999 VCSH SCT050 BKN070 610703 QNH3031INS TEMPO 0507/0511 3200 -SN VCFG 620703 BECMG 0511/0512 VRB06KT 1600 -SN BR VCFG SCT010 BKN015 OVC040 620159 QNH3007INS BECMG 0517/0518 VRB06KT 9000 BR VCFG SCT010 BKN080 620802 550206 530802 QNH2996INS BECMG 0520/0521 32010KT 9999 NSW BKN070 620703 530007 550703 QNH2977INS TXM13/0519Z TNM20/0503Z
NOTAMs
Click for the latest NOTAMs
NOTAMs are issued by the DoD/FAA and will open in a separate window not controlled by AirNav.

 

 
 

Would you like to see your business listed on this page?

 If your business provides an interesting product or service to pilots, flight crews, aircraft, or users of the Hope Airport, you should consider listing it here.  To start the listing process, click on the button below
 
Add a business
 

Other Pages about Hope Airport

Update a link
 
Copyright © AirNav, LLC. All rights reserved. Privacy Policy  Contact